Flag for Seychelles Weather past 2 weeks in Victoria, Seychelles

Now
84 °F

Scattered clouds.


Feels Like: 92 °F
Forecast: 75 / 80 °F
Wind: 12 mph from Southeast

Location: National Airport

Current Time: Aug 2, 2015 at 4:37:12 PM

Latest Report: Aug 2, 2015 at 4:00 PM


Visibility: N/A

Pressure: 29.92 "Hg

Humidity: 74%

Dew point: 75 °F

Location of VictoriaLocation

Historic Weather in Victoria — Graph

°F

Victoria temperature yesterday

Maximum temperature yesterday: 86 °F (at 12:00 PM)
Minimum temperature yesterday: 79 °F (at 1:00 AM)
Average temperature yesterday: 82 °F

Past Weeks' High & Low Weather Summary

 TemperatureHumidityPressure
High86 °F (Jul 29, 1:00 PM)94% (Aug 2, 2:00 AM)29.98 "Hg (Aug 2, 2:00 AM)
Low77 °F (Jul 20, 4:00 AM)62% (Jul 22, 11:00 AM)29.83 "Hg (Jul 18, 3:00 PM)
Average80 °F79%29.90 "Hg
* Reported Jul 18 3:00 PM — Aug 2 3:00 PM, Victoria, Weather by CustomWeather, © 2015

Note: Actual official high and low records may vary slightly from our data, if they occured in-between our weather recording intervals... More about our weather records

Advertising

Victoria weather history for previous 24 hours

 ConditionsComfort  
Time TempWeatherWind HumidityBarometerVisibility
3:00 PM
Sun, Aug 2
82 °FScattered clouds.14 mph79%29.92 "HgN/A
2:00 PM86 °FPartly sunny.14 mph75%29.92 "HgN/A
1:00 PM86 °FPartly sunny.13 mph75%29.95 "HgN/A
12:00 PM84 °FScattered clouds.12 mph79%29.95 "HgN/A
11:00 AM84 °FScattered clouds.13 mph79%29.98 "HgN/A
10:00 AM84 °FScattered clouds.15 mph74%29.98 "HgN/A
9:00 AM82 °FPartly sunny.13 mph79%29.98 "HgN/A
8:00 AM81 °FScattered clouds.10 mph84%29.95 "HgN/A
7:00 AM81 °FPartly sunny.12 mph84%29.92 "HgN/A
6:00 AM79 °FPassing clouds.9 mph89%29.92 "HgN/A
5:00 AM79 °FPassing clouds.8 mph89%29.92 "HgN/A
4:00 AM79 °FPassing clouds.10 mph89%29.89 "HgN/A
3:00 AM79 °FPassing clouds.7 mph94%29.92 "HgN/A
2:00 AM79 °FPassing clouds.3 mph94%29.92 "HgN/A
1:00 AM79 °FPassing clouds.8 mph89%29.92 "HgN/A
12:00 AM79 °FPassing clouds.7 mph89%29.95 "HgN/A
11:00 PM
Sat, Aug 1
79 °FPassing clouds.7 mph89%29.95 "HgN/A
10:00 PM81 °FPassing clouds.9 mph84%29.95 "HgN/A
9:00 PM81 °FPassing clouds.6 mph84%29.95 "HgN/A
8:00 PM81 °FPassing clouds.7 mph84%29.92 "HgN/A
7:00 PM81 °FPassing clouds.8 mph84%29.92 "HgN/A
6:00 PM81 °FScattered clouds.8 mph84%29.89 "HgN/A
5:00 PM82 °FBroken clouds.13 mph79%29.89 "HgN/A
4:00 PM82 °FBroken clouds.13 mph79%29.86 "HgN/A
Weather by CustomWeather, © 2015

See weather overviewHow to use our weather pages